| time (UTC) | temp C | wind direction | speed KPH | gust KPH | rain 1hr cm | rain 24hr cm | rain mn cm | humidity % | barometer mb |
| 20260509091528 | 10 | 269 | 3.2 | 11.3 | 0.00 | 0.00 | 0.00 | 89 | 1002.9 |
| 20260509090028 | 10 | 236 | 0.0 | 6.4 | 0.00 | 0.00 | 0.00 | 88 | 1003.1 |
| 20260509084537 | 10 | 191 | 1.6 | 8.0 | 0.00 | 0.00 | 0.00 | 88 | 1003.2 |
| 20260509083043 | 10 | 0 | 1.6 | 9.7 | 0.00 | 0.00 | 0.00 | 87 | 1003.4 |
| 20260509081530 | 10 | 242 | 1.6 | 11.3 | 0.00 | 0.00 | 0.00 | 86 | 1003.6 |
| 20260509080032 | 10 | 101 | 1.6 | 8.0 | 0.00 | 0.00 | 0.00 | 85 | 1003.7 |
| 20260509074528 | 10 | 0 | 1.6 | 4.8 | 0.00 | 0.00 | 0.00 | 84 | 1003.7 |
| 20260509073030 | 10 | 0 | 0.0 | 12.9 | 0.00 | 0.00 | 0.00 | 82 | 1004.0 |
| 20260509071531 | 10 | 0 | 0.0 | 4.8 | 0.00 | 0.00 | 0.00 | 80 | 1004.4 |
| 20260509070029 | 10 | 165 | 0.0 | 4.8 | 0.00 | 0.00 | 0.00 | 78 | 1004.7 |
| 20260509064528 | 10 | 0 | 0.0 | 1.6 | 0.00 | 0.00 | 0.00 | 72 | 1004.5 |
| 20260509063027 | 10 | 258 | 0.0 | 3.2 | 0.00 | 0.00 | 0.00 | 66 | 1004.7 |
| 20260509061528 | 10 | 0 | 0.0 | 6.4 | 0.00 | 0.00 | 0.00 | 57 | 1005.0 |
| 20260509060028 | 10 | 214 | 0.0 | 6.4 | 0.00 | 0.00 | 0.00 | 51 | 1004.9 |
| 20260509054529 | 10 | 0 | 1.6 | 11.3 | 0.00 | 0.00 | 0.00 | 47 | 1005.1 |
| 20260509053039 | 10 | 105 | 0.0 | 8.0 | 0.00 | 0.00 | 0.00 | 46 | 1005.3 |
| 20260509051530 | 10 | 201 | 0.0 | 12.9 | 0.00 | 0.00 | 0.00 | 45 | 1005.1 |
| 20260509050031 | 11 | 0 | 0.0 | 4.8 | 0.00 | 0.00 | 0.00 | 44 | 1005.0 |
| 20260509044530 | 10 | 143 | 3.2 | 14.5 | 0.00 | 0.00 | 0.00 | 43 | 1005.3 |
| 20260509043029 | 10 | 208 | 1.6 | 8.0 | 0.00 | 0.00 | 0.00 | 45 | 1005.3 |
| 20260509041539 | 10 | 232 | 0.0 | 3.2 | 0.00 | 0.00 | 0.00 | 47 | 1005.5 |
| 20260509040029 | 9 | 0 | 0.0 | 0.0 | 0.00 | 0.00 | 0.00 | 48 | 1005.7 |
| 20260509034529 | 9 | 0 | 0.0 | 0.0 | 0.00 | 0.00 | 0.00 | 49 | 1005.8 |
| 20260509033031 | 9 | 0 | 0.0 | 1.6 | 0.00 | 0.00 | 0.00 | 49 | 1006.0 |
| 20260509031531 | 9 | 0 | 0.0 | 0.0 | 0.00 | 0.00 | 0.00 | 47 | 1006.1 |
| 20260509030028 | 9 | 0 | 0.0 | 0.0 | 0.00 | 0.00 | 0.00 | 46 | 1006.3 |
| 20260509024529 | 9 | 0 | 0.0 | 0.0 | 0.00 | 0.00 | 0.00 | 41 | 1006.5 |
| 20260509023029 | 10 | 0 | 0.0 | 1.6 | 0.00 | 0.00 | 0.00 | 42 | 1006.7 |
| 20260509021530 | 10 | 0 | 0.0 | 0.0 | 0.00 | 0.00 | 0.00 | 43 | 1006.6 |
| 20260509020027 | 10 | 0 | 0.0 | 0.0 | 0.00 | 0.00 | 0.00 | 42 | 1006.6 |
| 20260509014530 | 10 | 0 | 0.0 | 0.0 | 0.00 | 0.00 | 0.00 | 41 | 1006.5 |
| 20260509013036 | 11 | 0 | 0.0 | 0.0 | 0.00 | 0.00 | 0.00 | 39 | 1006.5 |
| 20260509011534 | 11 | 0 | 0.0 | 0.0 | 0.00 | 0.00 | 0.00 | 36 | 1006.4 |
| 20260509010042 | 12 | 0 | 0.0 | 0.0 | 0.00 | 0.00 | 0.00 | 34 | 1006.5 |
| 20260509004529 | 13 | 0 | 0.0 | 0.0 | 0.00 | 0.00 | 0.00 | 32 | 1006.5 |
| 20260509003028 | 14 | 0 | 0.0 | 1.6 | 0.00 | 0.00 | 0.00 | 30 | 1006.6 |
| 20260509001531 | 15 | 0 | 0.0 | 1.6 | 0.00 | 0.00 | 0.00 | 28 | 1006.6 |
| 20260509000027 | 16 | 0 | 0.0 | 1.6 | 0.00 | 0.00 | 0.00 | 26 | 1006.8 |
| 20260508234528 | 17 | 163 | 1.6 | 4.8 | 0.00 | 0.00 | 0.00 | 25 | 1006.9 |
| 20260508233029 | 17 | 0 | 0.0 | 6.4 | 0.00 | 0.00 | 0.00 | 26 | 1007.1 |
| 20260508231528 | 17 | 291 | 1.6 | 4.8 | 0.00 | 0.00 | 0.00 | 27 | 1007.2 |
| 20260508230037 | 17 | 0 | 1.6 | 6.4 | 0.00 | 0.00 | 0.00 | 29 | 1007.3 |
| 20260508224537 | 18 | 303 | 3.2 | 9.7 | 0.00 | 0.00 | 0.00 | 28 | 1007.3 |
| 20260508223027 | 18 | 285 | 1.6 | 8.0 | 0.00 | 0.00 | 0.00 | 27 | 1007.3 |
| 20260508221541 | 18 | 293 | 1.6 | 8.0 | 0.00 | 0.00 | 0.00 | 29 | 1007.5 |
| 20260508220030 | 18 | 281 | 1.6 | 6.4 | 0.00 | 0.00 | 0.00 | 27 | 1007.5 |
| 20260508214530 | 18 | 335 | 1.6 | 8.0 | 0.00 | 0.00 | 0.00 | 29 | 1007.5 |
| 20260508213029 | 18 | 156 | 1.6 | 8.0 | 0.00 | 0.00 | 0.00 | 28 | 1007.5 |
| 20260508211529 | 17 | 231 | 0.0 | 11.3 | 0.00 | 0.00 | 0.00 | 29 | 1007.7 |
| 20260508210027 | 17 | 283 | 3.2 | 11.3 | 0.00 | 0.00 | 0.00 | 28 | 1007.8 |
| 20260508204530 | 17 | 338 | 4.8 | 12.9 | 0.00 | 0.00 | 0.00 | 32 | 1007.9 |
| 20260508203028 | 17 | 224 | 3.2 | 9.7 | 0.00 | 0.00 | 0.00 | 29 | 1008.1 |
| 20260508201528 | 17 | 231 | 3.2 | 14.5 | 0.00 | 0.00 | 0.00 | 30 | 1008.3 |
| 20260508200036 | 17 | 293 | 3.2 | 8.0 | 0.00 | 0.00 | 0.00 | 31 | 1008.5 |
| 20260508194527 | 17 | 265 | 3.2 | 9.7 | 0.00 | 0.00 | 0.00 | 33 | 1008.5 |
| 20260508193028 | 17 | 287 | 3.2 | 9.7 | 0.00 | 0.00 | 0.00 | 30 | 1008.7 |
| 20260508191530 | 16 | 303 | 4.8 | 14.5 | 0.00 | 0.00 | 0.00 | 31 | 1008.8 |
| 20260508190036 | 17 | 141 | 3.2 | 19.3 | 0.00 | 0.00 | 0.00 | 32 | 1008.6 |
| 20260508184534 | 17 | 242 | 3.2 | 12.9 | 0.00 | 0.00 | 0.00 | 32 | 1008.9 |
| 20260508183029 | 17 | 127 | 3.2 | 9.7 | 0.00 | 0.00 | 0.00 | 30 | 1009.2 |
| 20260508181528 | 17 | 134 | 3.2 | 8.0 | 0.00 | 0.00 | 0.00 | 29 | 1009.2 |
| 20260508180030 | 17 | 336 | 1.6 | 12.9 | 0.00 | 0.00 | 0.00 | 32 | 1009.5 |
| 20260508174537 | 17 | 278 | 3.2 | 12.9 | 0.00 | 0.00 | 0.00 | 30 | 1009.7 |
| 20260508173028 | 17 | 262 | 4.8 | 11.3 | 0.00 | 0.00 | 0.00 | 30 | 1010.0 |
| 20260508171532 | 16 | 328 | 3.2 | 9.7 | 0.00 | 0.00 | 0.00 | 33 | 1010.1 |
| 20260508170028 | 16 | 326 | 3.2 | 8.0 | 0.00 | 0.00 | 0.00 | 30 | 1010.3 |
| 20260508164535 | 16 | 353 | 1.6 | 11.3 | 0.00 | 0.00 | 0.00 | 35 | 1010.6 |
| 20260508163028 | 16 | 203 | 4.8 | 9.7 | 0.00 | 0.00 | 0.00 | 35 | 1010.8 |
| 20260508161530 | 16 | 176 | 1.6 | 11.3 | 0.00 | 0.00 | 0.00 | 36 | 1010.8 |
| 20260508160033 | 15 | 64 | 3.2 | 8.0 | 0.00 | 0.00 | 0.00 | 37 | 1010.8 |
| 20260508154532 | 15 | 298 | 3.2 | 6.4 | 0.00 | 0.00 | 0.00 | 38 | 1010.8 |
| 20260508153029 | 15 | 253 | 4.8 | 9.7 | 0.00 | 0.00 | 0.00 | 44 | 1010.9 |
| 20260508151531 | 14 | 128 | 1.6 | 9.7 | 0.00 | 0.00 | 0.00 | 47 | 1011.0 |
| 20260508150027 | 15 | 143 | 1.6 | 11.3 | 0.00 | 0.00 | 0.00 | 51 | 1011.2 |
| 20260508144528 | 14 | 342 | 1.6 | 6.4 | 0.00 | 0.00 | 0.00 | 50 | 1011.2 |
| 20260508143030 | 13 | 110 | 1.6 | 6.4 | 0.00 | 0.00 | 0.00 | 60 | 1011.2 |
| 20260508141529 | 13 | 191 | 1.6 | 11.3 | 0.00 | 0.00 | 0.00 | 64 | 1011.2 |
| 20260508140028 | 13 | 309 | 0.0 | 4.8 | 0.00 | 0.00 | 0.00 | 68 | 1011.3 |
| 20260508134529 | 12 | 277 | 1.6 | 6.4 | 0.00 | 0.00 | 0.00 | 68 | 1011.3 |
| 20260508133031 | 12 | 190 | 1.6 | 6.4 | 0.00 | 0.00 | 0.00 | 67 | 1011.3 |
| 20260508131528 | 12 | 0 | 1.6 | 6.4 | 0.00 | 0.00 | 0.00 | 71 | 1011.6 |
| 20260508130035 | 10 | 0 | 0.0 | 0.0 | 0.00 | 0.00 | 0.00 | 79 | 1011.6 |
| 20260508124527 | 7 | 0 | 0.0 | 0.0 | 0.00 | 0.00 | 0.00 | 82 | 1011.7 |
| 20260508123030 | 6 | 0 | 0.0 | 1.6 | 0.00 | 0.00 | 0.00 | 85 | 1011.9 |
| 20260508121530 | 5 | 0 | 0.0 | 0.0 | 0.00 | 0.00 | 0.00 | 87 | 1011.7 |
| 20260508120029 | 3 | 0 | 0.0 | 0.0 | 0.00 | 0.00 | 0.00 | 90 | 1011.3 |
| 20260508114528 | 3 | 0 | 0.0 | 0.0 | 0.00 | 0.00 | 0.00 | 90 | 1011.3 |
| 20260508113028 | 3 | 0 | 0.0 | 0.0 | 0.00 | 0.00 | 0.00 | 92 | 1011.1 |
| 20260508111529 | 1 | 0 | 0.0 | 0.0 | 0.00 | 0.00 | 0.00 | 94 | 1011.0 |
| 20260508110027 | 0 | 0 | 0.0 | 0.0 | 0.00 | 0.00 | 0.00 | 94 | 1011.1 |
| 20260508104541 | 0 | 0 | 0.0 | 0.0 | 0.00 | 0.00 | 0.00 | 94 | 1011.0 |
| 20260508103037 | 0 | 0 | 0.0 | 0.0 | 0.00 | 0.00 | 0.00 | 93 | 1010.9 |
| 20260508101530 | 0 | 0 | 0.0 | 0.0 | 0.00 | 0.00 | 0.00 | 93 | 1010.9 |
| 20260508100028 | 0 | 0 | 0.0 | 0.0 | 0.00 | 0.00 | 0.00 | 93 | 1011.1 |
| 20260508094529 | 1 | 0 | 0.0 | 0.0 | 0.00 | 0.00 | 0.00 | 92 | 1011.0 |
| 20260508093028 | 1 | 0 | 0.0 | 0.0 | 0.00 | 0.00 | 0.00 | 93 | 1011.2 |